When you browse on this site, cookies collect data to enhance your experience and personalize the content and advertising you see.
Visit our Privacy Policy to learn more. By continuing to use the site, you agree to this use of cookies and data.
  • In Switzerland
  • List of Countries
  • For 7 days
  • Water Temperature
  • Weather Map
  • Weather Widgets
  • user-avatar
    Login

    Hourly Weather Durham

    Today, 12 December, Thursday

    Time Temperature Precipitation Wind Pressure Humidity
    00:00 0°C° 0 mm 5 mps 741 mmHg 86%
    01:00 0°C° 0 mm 5 mps 741 mmHg 86%
    02:00 0°C° 0 mm 5 mps 740 mmHg 86%
    03:00 0°C° 0 mm 5 mps 740 mmHg 86%
    04:00 0°C° 0 mm 5 mps 739 mmHg 86%
    05:00 0°C° 0 mm 5 mps 739 mmHg 86%
    06:00 0°C° 0 mm 5 mps 738 mmHg 87%
    07:00 0°C° 0 mm 5 mps 737 mmHg 87%
    08:00 0°C° 0 mm 5 mps 736 mmHg 88%
    09:00 -1°C° 0 mm 6 mps 736 mmHg 88%
    10:00 +1°C° 0.1 mm 6 mps 734 mmHg 90%
    11:00 +1°C° 0.1 mm 6 mps 733 mmHg 91%
    12:00 +2°C° 0.1 mm 6 mps 732 mmHg 93%
    13:00 +2°C° 0.1 mm 5 mps 731 mmHg 93%
    14:00 +2°C° 0.1 mm 5 mps 729 mmHg 94%
    15:00 +3°C° 0.1 mm 4 mps 728 mmHg 94%
    16:00 +3°C° 0.3 mm 4 mps 727 mmHg 95%
    17:00 +3°C° 0.3 mm 3 mps 725 mmHg 96%
    18:00 +4°C° 0.3 mm 2 mps 724 mmHg 97%
    19:00 +4°C° 0.1 mm 2 mps 723 mmHg 97%
    20:00 +5°C° 0.1 mm 2 mps 722 mmHg 96%
    21:00 +5°C° 0.1 mm 2 mps 721 mmHg 96%
    22:00 +4°C° 0 mm 3 mps 721 mmHg 94%
    23:00 +3°C° 0 mm 3 mps 720 mmHg 93%

    Tomorrow, 13 December, Friday

    Time Temperature Precipitation Wind Pressure Humidity
    00:00 +3°C° 0 mm 4 mps 719 mmHg 91%
    01:00 +3°C° 0 mm 4 mps 719 mmHg 91%
    02:00 +3°C° 0 mm 4 mps 719 mmHg 91%
    03:00 +3°C° 0 mm 4 mps 719 mmHg 91%
    04:00 +3°C° 0 mm 4 mps 719 mmHg 90%
    05:00 +3°C° 0 mm 4 mps 720 mmHg 90%
    06:00 +3°C° 0 mm 4 mps 720 mmHg 89%
    07:00 +3°C° 0 mm 4 mps 721 mmHg 89%
    08:00 +2°C° 0 mm 5 mps 721 mmHg 89%
    09:00 +2°C° 0 mm 5 mps 722 mmHg 88%
    10:00 +3°C° 0.1 mm 6 mps 723 mmHg 86%
    11:00 +3°C° 0.1 mm 7 mps 723 mmHg 84%
    12:00 +4°C° 0.1 mm 7 mps 724 mmHg 81%
    13:00 +4°C° 0 mm 8 mps 725 mmHg 80%
    14:00 +4°C° 0 mm 8 mps 725 mmHg 78%
    15:00 +4°C° 0 mm 8 mps 726 mmHg 76%
    16:00 +3°C° 0 mm 7 mps 726 mmHg 79%
    17:00 +3°C° 0 mm 7 mps 727 mmHg 82%
    18:00 +2°C° 0 mm 6 mps 727 mmHg 85%
    19:00 +2°C° 0 mm 6 mps 727 mmHg 86%
    20:00 +3°C° 0 mm 6 mps 727 mmHg 87%
    21:00 +3°C° 0 mm 5 mps 728 mmHg 88%
    22:00 +3°C° 0 mm 6 mps 728 mmHg 86%
    23:00 +3°C° 0 mm 6 mps 728 mmHg 84%

    Day after tomorrow, 14 December, Saturday

    Time Temperature Precipitation Wind Pressure Humidity
    00:00 +3°C° 0 mm 7 mps 728 mmHg 82%
    01:00 +2°C° 0 mm 7 mps 728 mmHg 83%
    02:00 +2°C° 0 mm 7 mps 727 mmHg 85%
    03:00 0°C° 0 mm 7 mps 727 mmHg 87%
    04:00 0°C° 0.1 mm 7 mps 727 mmHg 88%
    05:00 0°C° 0.1 mm 8 mps 728 mmHg 89%
    06:00 0°C° 0.1 mm 8 mps 728 mmHg 90%
    07:00 0°C° 0.1 mm 9 mps 728 mmHg 84%
    08:00 0°C° 0.1 mm 9 mps 728 mmHg 78%
    09:00 0°C° 0.1 mm 10 mps 728 mmHg 72%
    10:00 -1°C° 0 mm 11 mps 729 mmHg 69%
    11:00 -1°C° 0 mm 12 mps 729 mmHg 67%
    12:00 0°C° 0 mm 12 mps 729 mmHg 64%
    13:00 -1°C° 0 mm 13 mps 730 mmHg 63%
    14:00 -1°C° 0 mm 13 mps 730 mmHg 62%
    15:00 -2°C° 0 mm 13 mps 731 mmHg 61%
    16:00 -2°C° 0 mm 12 mps 731 mmHg 61%
    17:00 -2°C° 0 mm 11 mps 732 mmHg 60%
    18:00 -2°C° 0 mm 10 mps 732 mmHg 60%
    19:00 -1°C° 0 mm 9 mps 733 mmHg 61%
    20:00 -1°C° 0 mm 8 mps 733 mmHg 61%
    21:00 -1°C° 0 mm 7 mps 733 mmHg 62%
    22:00 0°C° 0 mm 5 mps 732 mmHg 69%
    23:00 -1°C° 0 mm 4 mps 731 mmHg 75%

    15 December, Sunday

    Time Temperature Precipitation Wind Pressure Humidity
    00:00 +1°C° 0 mm 2 mps 731 mmHg 82%
    01:00 0°C° 1 mm 3 mps 731 mmHg 86%
    02:00 0°C° 1 mm 3 mps 731 mmHg 89%
    03:00 0°C° 1 mm 3 mps 730 mmHg 93%
    04:00 -1°C° 0 mm 4 mps 732 mmHg 88%
    05:00 -1°C° 0 mm 5 mps 733 mmHg 84%
    06:00 -2°C° 0 mm 7 mps 734 mmHg 80%
    07:00 -2°C° 0 mm 7 mps 735 mmHg 79%
    08:00 -2°C° 0 mm 7 mps 735 mmHg 79%
    09:00 -1°C° 0 mm 8 mps 736 mmHg 79%
    10:00 -1°C° 0 mm 8 mps 736 mmHg 78%
    11:00 0°C° 0 mm 8 mps 736 mmHg 77%
    12:00 0°C° 0 mm 9 mps 736 mmHg 77%
    13:00 0°C° 0 mm 7 mps 736 mmHg 79%
    14:00 +1°C° 0 mm 6 mps 736 mmHg 82%
    15:00 0°C° 0 mm 5 mps 736 mmHg 84%
    16:00 0°C° 0.3 mm 5 mps 736 mmHg 88%
    17:00 0°C° 0.3 mm 4 mps 736 mmHg 92%
    18:00 0°C° 0.3 mm 4 mps 736 mmHg 96%
    19:00 0°C° 0 mm 4 mps 736 mmHg 94%
    20:00 -1°C° 0 mm 4 mps 736 mmHg 91%
    21:00 -1°C° 0 mm 4 mps 737 mmHg 89%
    22:00 0°C° 0 mm 4 mps 737 mmHg 89%
    23:00 0°C° 0 mm 5 mps 737 mmHg 89%

    16 December, Monday

    Time Temperature Precipitation Wind Pressure Humidity
    00:00 0°C° 0 mm 5 mps 738 mmHg 89%
    01:00 0°C° 0 mm 4 mps 738 mmHg 89%
    02:00 0°C° 0 mm 4 mps 738 mmHg 89%
    03:00 0°C° 0 mm 4 mps 738 mmHg 89%
    04:00 -1°C° 0 mm 4 mps 738 mmHg 90%
    05:00 -1°C° 0 mm 4 mps 738 mmHg 90%
    06:00 -1°C° 0 mm 4 mps 738 mmHg 90%
    07:00 -1°C° 0 mm 4 mps 738 mmHg 91%
    08:00 0°C° 0 mm 4 mps 739 mmHg 91%
    09:00 0°C° 0 mm 4 mps 739 mmHg 92%
    10:00 0°C° 0 mm 4 mps 739 mmHg 91%
    11:00 +1°C° 0 mm 4 mps 739 mmHg 91%
    12:00 +1°C° 0 mm 4 mps 739 mmHg 90%
    13:00 +1°C° 0 mm 4 mps 739 mmHg 90%
    14:00 +1°C° 0 mm 4 mps 739 mmHg 90%
    15:00 +1°C° 0 mm 4 mps 739 mmHg 90%
    16:00 +2°C° 0 mm 3 mps 739 mmHg 90%
    17:00 +1°C° 0 mm 3 mps 739 mmHg 91%
    18:00 +2°C° 0 mm 2 mps 740 mmHg 91%
    19:00 +2°C° 0.1 mm 2 mps 740 mmHg 92%
    20:00 +2°C° 0.1 mm 2 mps 741 mmHg 93%
    21:00 +2°C° 0.1 mm 2 mps 741 mmHg 93%
    22:00 +1°C° 0 mm 3 mps 742 mmHg 93%
    23:00 +1°C° 0 mm 3 mps 742 mmHg 92%

    17 December, Tuesday

    Time Temperature Precipitation Wind Pressure Humidity
    00:00 +1°C° 0 mm 3 mps 743 mmHg 91%
    01:00 0°C° 0 mm 4 mps 743 mmHg 90%
    02:00 -1°C° 0 mm 4 mps 744 mmHg 90%
    03:00 -1°C° 0 mm 4 mps 744 mmHg 89%
    04:00 -1°C° 0 mm 4 mps 744 mmHg 89%
    05:00 -1°C° 0 mm 4 mps 745 mmHg 88%
    06:00 0°C° 0 mm 4 mps 745 mmHg 88%
    07:00 0°C° 0 mm 4 mps 746 mmHg 88%
    08:00 0°C° 0 mm 4 mps 747 mmHg 89%
    09:00 0°C° 0 mm 4 mps 747 mmHg 90%
    10:00 0°C° 0 mm 4 mps 747 mmHg 89%
    11:00 +1°C° 0 mm 4 mps 748 mmHg 87%
    12:00 +3°C° 0 mm 3 mps 748 mmHg 85%
    13:00 +2°C° 0 mm 3 mps 749 mmHg 87%
    14:00 +2°C° 0 mm 3 mps 749 mmHg 89%
    15:00 +2°C° 0 mm 2 mps 750 mmHg 90%
    16:00 +1°C° 0 mm 3 mps 750 mmHg 90%
    17:00 +1°C° 0 mm 3 mps 751 mmHg 91%
    18:00 0°C° 0 mm 3 mps 751 mmHg 91%
    19:00 0°C° 0 mm 3 mps 751 mmHg 90%
    20:00 0°C° 0 mm 3 mps 752 mmHg 89%
    21:00 0°C° 0 mm 3 mps 752 mmHg 89%
    22:00 0°C° 0 mm 3 mps 753 mmHg 88%
    23:00 0°C° 0 mm 3 mps 753 mmHg 88%
    Show more